Location: Hermaringen
(48.5952°N, 10.2585°E)
Time: 14:01:08
(UTC+00:00)

A-11 Canister half - Pass Details

Date: 24 February 2026
Orbit: 1513 x 1687 km, 47.2° (Epoch: 11 March)

Event Time Altitude Azimuth Distance (km) Brightness Sun altitude
Rises 02:51:10 0° 286° (WNW) 4,865 - -33.0°
Reaches altitude 10° 02:56:27 10° 264° (W) 3,836 - -32.3°
Maximum altitude 03:00:44 14° 237° (WSW) 3,500 - -31.6°
Drops below altitude 10° 03:04:57 10° 210° (SSW) 3,764 - -31.0°
Sets 03:10:05 0° 187° (S) 4,707 - -30.2°
